FW5717 Weather Reports


time (UTC)temp
C
wind
direction
speed
KPH
gust
KPH
rain 1hr
cm
rain 24hr
cm
rain mn
cm
humidity
%
barometer
mb
20260505070042 12 0.0 0.0 0.00 0.00 0.00 62 1008.0
20260505064530 12 0.0 0.0 0.00 0.00 0.00 63 1008.0
20260505063035 13 0.0 0.0 0.00 0.00 0.00 63 1008.1
20260505061532 13 0.0 0.0 0.00 0.00 0.00 62 1008.0
20260505060035 13 0.0 0.0 0.00 0.00 0.00 59 1007.7
20260505054531 13 0.0 0.0 0.00 0.00 0.00 56 1007.8
20260505053047 13 0.0 0.0 0.00 0.00 0.00 55 1007.5
20260505051532 13 0.0 0.0 0.00 0.00 0.00 54 1007.5
20260505041542 13 0.0 0.0 0.00 0.00 0.00 52 1006.8
20260505040035 14 0.0 0.0 0.00 0.00 0.00 50 1006.8
20260505034532 14 0.0 0.0 0.00 0.00 0.00 50 1006.6
20260505033030 15 0.0 0.0 0.00 0.00 0.00 48 1006.2
20260505031533 15 0.0 0.0 0.00 0.00 0.00 48 1006.0
20260505030035 15 0.0 0.0 0.00 0.00 0.00 47 1005.9
20260505024533 16 0.0 0.0 0.00 0.00 0.00 44 1005.7
20260505023030 16 0.0 0.0 0.00 0.00 0.00 42 1005.6
20260505021533 17 0.0 0.0 0.00 0.00 0.00 40 1005.6
20260505020032 17 0.0 0.0 0.00 0.00 0.00 40 1005.5
20260505014531 17 0.0 0.0 0.00 0.00 0.00 40 1005.6
20260505013035 17 0.0 0.0 0.00 0.00 0.00 39 1005.5
20260505011553 18 0.0 0.0 0.00 0.00 0.00 40 1005.6
20260505010030 18 0.0 0.0 0.00 0.00 0.00 36 1005.6
20260505004530 18 0.0 0.0 0.00 0.00 0.00 39 1005.7
20260505003030 18 0.0 0.0 0.00 0.00 0.00 35 1005.9
20260505001534 18 0.0 0.0 0.00 0.00 0.00 35 1006.1
20260505000038 19 0.0 0.0 0.00 0.00 0.00 37 1006.1
20260504234533 19 0.0 0.0 0.00 0.00 0.00 37 1006.3
20260504233034 19 0.0 0.0 0.00 0.00 0.00 39 1006.7
20260504231533 17 0.0 0.0 0.00 0.00 0.00 44 1006.7
20260504230033 16 0.0 0.0 0.00 0.00 0.00 50 1007.0
20260504224533 15 0.0 0.0 0.00 0.00 0.00 51 1007.2
20260504223033 15 0.0 0.0 0.00 0.00 0.00 51 1006.9
20260504221529 16 0.0 0.0 0.00 0.00 0.00 49 1007.0
20260504220030 18 0.0 0.0 0.00 0.00 0.00 40 1006.6
20260504214534 20 0.0 0.0 0.00 0.00 0.00 31 1006.6
20260504213034 22 0.0 0.0 0.00 0.00 0.00 27 1006.2
20260504211531 22 0.0 0.0 0.00 0.00 0.00 25 1006.2
20260504210031 23 0.0 0.0 0.00 0.00 0.00 26 1006.4
20260504204532 23 0.0 0.0 0.00 0.00 0.00 26 1006.5
20260504203033 23 0.0 0.0 0.00 0.00 0.00 25 1006.5
20260504201532 24 0.0 0.0 0.00 0.00 0.00 24 1006.6
20260504200032 25 0.0 0.0 0.00 0.00 0.00 23 1006.8
20260504194532 25 0.0 0.0 0.00 0.00 0.00 23 1006.9
20260504193031 25 0.0 0.0 0.00 0.00 0.00 23 1007.0
20260504191532 26 0.0 0.0 0.00 0.00 0.00 20 1007.0
20260504190034 26 0.0 0.0 0.00 0.00 0.00 21 1007.2
20260504184533 26 0.0 0.0 0.00 0.00 0.00 21 1007.4
20260504183033 25 0.0 0.0 0.00 0.00 0.00 24 1007.5
20260504181529 25 0.0 0.0 0.00 0.00 0.00 24 1007.7
20260504180034 23 0.0 0.0 0.00 0.00 0.00 26 1008.0
20260504174533 22 0.0 0.0 0.00 0.00 0.00 27 1008.1
20260504173032 22 0.0 0.0 0.00 0.00 0.00 29 1008.1
20260504171544 21 0.0 0.0 0.00 0.00 0.00 32 1008.3
20260504081531 12 0.0 0.0 0.00 0.00 0.00 34 1008.8